| time (UTC) | temp C | wind direction | speed KPH | gust KPH | rain 1hr cm | rain 24hr cm | rain mn cm | humidity % | barometer mb |
| 20260508104533 | 18 | 291 | 17.7 | 24.1 | 0.00 | 0.00 | 0.00 | 36 | 1008.3 |
| 20260508103034 | 18 | 302 | 17.7 | 24.1 | 0.00 | 0.00 | 0.00 | 34 | 1008.3 |
| 20260508101527 | 17 | 325 | 12.9 | 29.0 | 0.00 | 0.00 | 0.00 | 33 | 1008.1 |
| 20260508100022 | 18 | 304 | 19.3 | 30.6 | 0.00 | 0.00 | 0.00 | 36 | 1008.2 |
| 20260508094522 | 18 | 304 | 6.4 | 12.9 | 0.00 | 0.00 | 0.00 | 42 | 1007.9 |
| 20260508093024 | 18 | 85 | 0.0 | 3.2 | 0.00 | 0.00 | 0.00 | 41 | 1007.6 |
| 20260508091515 | 19 | 84 | 3.2 | 6.4 | 0.00 | 0.00 | 0.00 | 40 | 1007.9 |
| 20260508090011 | 19 | 84 | 4.8 | 9.7 | 0.00 | 0.00 | 0.00 | 40 | 1007.9 |
| 20260508084510 | 20 | 84 | 4.8 | 8.0 | 0.00 | 0.00 | 0.00 | 39 | 1008.2 |
| 20260508083008 | 20 | 80 | 6.4 | 8.0 | 0.00 | 0.00 | 0.00 | 39 | 1008.3 |
| 20260508081510 | 20 | 80 | 4.8 | 8.0 | 0.00 | 0.00 | 0.00 | 39 | 1008.4 |
| 20260508080107 | 20 | 200 | 3.2 | 6.4 | 0.00 | 0.00 | 0.00 | 40 | 1008.4 |
| 20260508074503 | 20 | 200 | 1.6 | 3.2 | 0.00 | 0.00 | 0.00 | 39 | 1008.6 |
| 20260508073004 | 20 | 200 | 0.0 | 6.4 | 0.00 | 0.00 | 0.00 | 38 | 1008.9 |
| 20260508071603 | 20 | 204 | 6.4 | 11.3 | 0.00 | 0.00 | 0.00 | 38 | 1009.0 |
| 20260508070056 | 20 | 158 | 4.8 | 9.7 | 0.00 | 0.00 | 0.00 | 36 | 1009.2 |
| 20260508064553 | 21 | 145 | 6.4 | 12.9 | 0.00 | 0.00 | 0.00 | 36 | 1009.5 |
| 20260508063102 | 21 | 161 | 9.7 | 14.5 | 0.00 | 0.00 | 0.00 | 35 | 1009.5 |
| 20260508061549 | 21 | 142 | 6.4 | 11.3 | 0.00 | 0.00 | 0.00 | 34 | 1009.3 |
| 20260508060047 | 21 | 120 | 6.4 | 9.7 | 0.00 | 0.00 | 0.00 | 33 | 1009.5 |
| 20260508054546 | 21 | 86 | 1.6 | 12.9 | 0.00 | 0.00 | 0.00 | 32 | 1009.5 |
| 20260508053050 | 22 | 128 | 6.4 | 12.9 | 0.00 | 0.00 | 0.00 | 31 | 1009.3 |
| 20260508051545 | 22 | 154 | 11.3 | 22.5 | 0.00 | 0.00 | 0.00 | 29 | 1009.6 |
| 20260508050044 | 23 | 128 | 8.0 | 22.5 | 0.00 | 0.00 | 0.00 | 25 | 1009.4 |
| 20260508044544 | 23 | 121 | 3.2 | 8.0 | 0.00 | 0.00 | 0.00 | 23 | 1009.3 |
| 20260508043055 | 24 | 148 | 4.8 | 11.3 | 0.00 | 0.00 | 0.00 | 21 | 1008.9 |
| 20260508041549 | 25 | 101 | 6.4 | 12.9 | 0.00 | 0.00 | 0.00 | 17 | 1009.0 |
| 20260508040042 | 24 | 125 | 6.4 | 14.5 | 0.00 | 0.00 | 0.00 | 18 | 1009.0 |
| 20260508034541 | 25 | 55 | 1.6 | 4.8 | 0.00 | 0.00 | 0.00 | 17 | 1008.6 |
| 20260508033040 | 25 | 55 | 3.2 | 6.4 | 0.00 | 0.00 | 0.00 | 17 | 1008.2 |
| 20260508031540 | 25 | 40 | 6.4 | 8.0 | 0.00 | 0.00 | 0.00 | 16 | 1008.0 |
| 20260508030043 | 25 | 27 | 4.8 | 8.0 | 0.00 | 0.00 | 0.00 | 16 | 1007.9 |
| 20260508024540 | 26 | 27 | 4.8 | 9.7 | 0.00 | 0.00 | 0.00 | 16 | 1007.8 |
| 20260508023038 | 26 | 61 | 4.8 | 9.7 | 0.00 | 0.00 | 0.00 | 16 | 1007.8 |
| 20260508021543 | 26 | 54 | 8.0 | 11.3 | 0.00 | 0.00 | 0.00 | 16 | 1007.5 |
| 20260508020045 | 26 | 61 | 6.4 | 11.3 | 0.00 | 0.00 | 0.00 | 15 | 1007.3 |
| 20260508014538 | 26 | 106 | 4.8 | 11.3 | 0.00 | 0.00 | 0.00 | 15 | 1007.3 |
| 20260508013050 | 26 | 76 | 6.4 | 12.9 | 0.00 | 0.00 | 0.00 | 15 | 1007.4 |
| 20260508011537 | 27 | 117 | 3.2 | 12.9 | 0.00 | 0.00 | 0.00 | 14 | 1007.3 |
| 20260508010035 | 27 | 100 | 0.0 | 9.7 | 0.00 | 0.00 | 0.00 | 14 | 1007.5 |
| 20260508004533 | 27 | 74 | 12.9 | 19.3 | 0.00 | 0.00 | 0.00 | 14 | 1007.4 |
| 20260508003033 | 27 | 59 | 8.0 | 14.5 | 0.00 | 0.00 | 0.00 | 14 | 1007.5 |
| 20260508001558 | 27 | 44 | 4.8 | 14.5 | 0.00 | 0.00 | 0.00 | 14 | 1007.5 |
| 20260508000031 | 27 | 115 | 9.7 | 19.3 | 0.00 | 0.00 | 0.00 | 14 | 1007.6 |
| 20260507234534 | 27 | 9 | 3.2 | 6.4 | 0.00 | 0.00 | 0.00 | 14 | 1007.5 |
| 20260507233027 | 27 | 343 | 1.6 | 4.8 | 0.00 | 0.00 | 0.00 | 15 | 1007.8 |
| 20260507231533 | 27 | 174 | 9.7 | 14.5 | 0.00 | 0.00 | 0.00 | 15 | 1008.0 |
| 20260507230026 | 27 | 186 | 9.7 | 19.3 | 0.00 | 0.00 | 0.00 | 15 | 1008.2 |
| 20260507224532 | 27 | 218 | 8.0 | 14.5 | 0.00 | 0.00 | 0.00 | 15 | 1008.3 |
| 20260507223019 | 27 | 88 | 4.8 | 9.7 | 0.00 | 0.00 | 0.00 | 16 | 1008.4 |
| 20260507221518 | 26 | 22 | 9.7 | 17.7 | 0.00 | 0.00 | 0.00 | 16 | 1008.5 |
| 20260507220025 | 26 | 159 | 6.4 | 16.1 | 0.00 | 0.00 | 0.00 | 17 | 1008.8 |
| 20260507214515 | 26 | 161 | 19.3 | 27.4 | 0.00 | 0.00 | 0.00 | 16 | 1009.0 |
| 20260507213011 | 27 | 207 | 9.7 | 19.3 | 0.00 | 0.00 | 0.00 | 16 | 1009.3 |
| 20260507211506 | 26 | 311 | 6.4 | 17.7 | 0.00 | 0.00 | 0.00 | 18 | 1009.4 |
| 20260507210006 | 26 | 161 | 9.7 | 17.7 | 0.00 | 0.00 | 0.00 | 17 | 1009.8 |
| 20260507204501 | 25 | 145 | 4.8 | 17.7 | 0.00 | 0.00 | 0.00 | 17 | 1009.9 |
| 20260507203101 | 26 | 130 | 9.7 | 19.3 | 0.00 | 0.00 | 0.00 | 18 | 1010.2 |
| 20260507201559 | 25 | 159 | 6.4 | 17.7 | 0.00 | 0.00 | 0.00 | 18 | 1010.5 |
| 20260507194552 | 25 | 36 | 3.2 | 17.7 | 0.00 | 0.00 | 0.00 | 19 | 1010.9 |
| 20260507193051 | 23 | 165 | 6.4 | 19.3 | 0.00 | 0.00 | 0.00 | 20 | 1011.2 |
| 20260507191552 | 23 | 43 | 8.0 | 19.3 | 0.00 | 0.00 | 0.00 | 20 | 1011.4 |
| 20260507190047 | 23 | 163 | 9.7 | 16.1 | 0.00 | 0.00 | 0.00 | 21 | 1011.7 |
| 20260507184541 | 23 | 134 | 9.7 | 17.7 | 0.00 | 0.00 | 0.00 | 22 | 1011.9 |
| 20260507183042 | 22 | 129 | 14.5 | 20.9 | 0.00 | 0.00 | 0.00 | 23 | 1012.2 |
| 20260507181535 | 22 | 137 | 4.8 | 22.5 | 0.00 | 0.00 | 0.00 | 25 | 1012.4 |
| 20260507180031 | 21 | 74 | 11.3 | 17.7 | 0.00 | 0.00 | 0.00 | 27 | 1012.6 |
| 20260507174539 | 21 | 86 | 9.7 | 19.3 | 0.00 | 0.00 | 0.00 | 28 | 1012.6 |
| 20260507173027 | 20 | 82 | 4.8 | 22.5 | 0.00 | 0.00 | 0.00 | 28 | 1012.9 |
| 20260507171520 | 20 | 52 | 8.0 | 27.4 | 0.00 | 0.00 | 0.00 | 29 | 1013.1 |
| 20260507170023 | 20 | 82 | 16.1 | 24.1 | 0.00 | 0.00 | 0.00 | 30 | 1013.4 |
| 20260507164511 | 19 | 65 | 16.1 | 22.5 | 0.00 | 0.00 | 0.00 | 31 | 1013.6 |
| 20260507163007 | 19 | 136 | 8.0 | 24.1 | 0.00 | 0.00 | 0.00 | 33 | 1013.7 |
| 20260507161504 | 18 | 61 | 12.9 | 27.4 | 0.00 | 0.00 | 0.00 | 34 | 1013.9 |
| 20260507160059 | 18 | 53 | 19.3 | 29.0 | 0.00 | 0.00 | 0.00 | 35 | 1014.1 |
| 20260507154654 | 17 | 76 | 16.1 | 27.4 | 0.00 | 0.00 | 0.00 | 35 | 1014.2 |
| 20260507153058 | 17 | 71 | 17.7 | 25.7 | 0.00 | 0.00 | 0.00 | 35 | 1014.2 |
| 20260507151545 | 17 | 57 | 16.1 | 25.7 | 0.00 | 0.00 | 0.00 | 37 | 1014.3 |
| 20260507150043 | 16 | 51 | 19.3 | 25.7 | 0.00 | 0.00 | 0.00 | 38 | 1014.4 |
| 20260507144536 | 16 | 74 | 17.7 | 27.4 | 0.00 | 0.00 | 0.00 | 39 | 1014.4 |
| 20260507143035 | 16 | 74 | 24.1 | 29.0 | 0.00 | 0.00 | 0.00 | 38 | 1014.6 |
| 20260507141528 | 15 | 65 | 19.3 | 29.0 | 0.00 | 0.00 | 0.00 | 39 | 1014.6 |
| 20260507140022 | 15 | 74 | 22.5 | 30.6 | 0.00 | 0.00 | 0.00 | 39 | 1014.5 |
| 20260507134519 | 15 | 71 | 20.9 | 27.4 | 0.00 | 0.00 | 0.00 | 38 | 1014.6 |
| 20260507133014 | 15 | 64 | 16.1 | 25.7 | 0.00 | 0.00 | 0.00 | 40 | 1014.4 |
| 20260507131513 | 14 | 46 | 22.5 | 30.6 | 0.00 | 0.00 | 0.00 | 41 | 1014.2 |
| 20260507130111 | 14 | 71 | 12.9 | 22.5 | 0.00 | 0.00 | 0.00 | 41 | 1014.2 |
| 20260507124605 | 13 | 64 | 16.1 | 24.1 | 0.00 | 0.00 | 0.00 | 41 | 1014.0 |
| 20260507123058 | 13 | 123 | 12.9 | 17.7 | 0.00 | 0.00 | 0.00 | 34 | 1013.7 |
| 20260507121605 | 13 | 156 | 4.8 | 11.3 | 0.00 | 0.00 | 0.00 | 30 | 1013.4 |
| 20260507120050 | 13 | 128 | 6.4 | 16.1 | 0.00 | 0.00 | 0.00 | 27 | 1013.3 |
| 20260507114601 | 14 | 78 | 11.3 | 19.3 | 0.00 | 0.00 | 0.00 | 25 | 1013.1 |
| 20260507113045 | 14 | 51 | 11.3 | 20.9 | 0.00 | 0.00 | 0.00 | 25 | 1013.0 |
| 20260507111542 | 15 | 40 | 19.3 | 30.6 | 0.00 | 0.00 | 0.00 | 25 | 1013.0 |
| 20260507110041 | 15 | 231 | 0.0 | 4.8 | 0.00 | 0.00 | 0.00 | 27 | 1012.5 |